[[{"header":{"parameterUnit":"m.s-1","parameterCategory":1,"la1":30.2991,"la2":30.254,"lo1":-89.0895,"lo2":-89.0444,"dy":0.0017,"dx":0.0017,"nx":28,"ny":28,"refTime":"2024-02-16T09:00:00:Z","depth":0,"parameterNumber":2,"parameterNumberName":"U-component_of_WINDS"},"data":[0,0,0,0,0,0,0,0,0,0,0,0,0,0,0,0,0,0,0,0,0,0,0,0,0,0,0,0,0,0,0,0,0,0,0,0,0,0,0,0,0,0,0,0,0,0,0,0,0,0,0,0,0,0,0,0,0,0,-0.7647,-0.7647,0,-0.761,-0.761,-0.7609,-0.7565,-0.7565,-0.7564,-0.7563,-0.7528,-0.7528,-0.7527,0,0,0,0,0,0,0,0,0,0,0,0,0,-0.7684,-0.7683,-0.7647,-0.7647,-0.7646,-0.761,-0.761,-0.7609,-0.7566,-0.7565,-0.7564,-0.7563,-0.7528,-0.7528,-0.7527,0,0,0,0,0,0,0,0,0,0,0,0,0,-0.7659,-0.7683,-0.7648,-0.762,-0.7617,-0.761,-0.761,-0.7609,-0.7566,-0.7565,-0.7564,-0.7563,-0.7528,-0.7528,-0.7527,-0.7544,0,0,-0.7526,-0.7525,0,0,0,0,0,0,0,0,-0.7661,-0.7658,-0.7625,-0.7622,-0.7619,-0.7591,-0.7609,-0.7588,-0.7566,-0.7586,-0.7563,-0.7562,-0.755,-0.7548,-0.7543,-0.7543,-0.7541,-0.7526,-0.7525,-0.7525,-0.7525,0,0,0,0,0,0,0,-0.7663,-0.766,-0.7633,-0.7624,-0.7621,-0.7611,-0.7606,-0.7605,-0.7574,-0.7584,-0.758,-0.7576,-0.7548,-0.7544,-0.7542,-0.7541,-0.7526,-0.7525,-0.7525,-0.7525,-0.7554,-0.7555,0,0,0,0,0,0,-0.7668,-0.7661,-0.7634,-0.7632,-0.7638,-0.7611,-0.7606,-0.7601,-0.7574,-0.7569,-0.7577,-0.7575,-0.7545,-0.7542,-0.754,-0.7559,-0.7525,-0.7525,-0.7524,-0.7553,-0.7554,-0.7555,0,0,0,0,0,0,-0.7669,-0.7666,-0.7635,-0.7645,-0.7641,-0.7611,-0.7607,-0.7601,-0.7596,-0.7569,-0.7564,-0.7578,-0.7544,-0.7541,-0.7544,-0.7558,-0.7524,-0.7524,-0.7552,-0.7553,-0.7555,-0.7597,0,0,0,0,0,0,-0.767,-0.7667,-0.7672,-0.7646,-0.764,-0.7639,-0.7607,-0.7601,-0.7595,-0.7591,-0.7568,-0.7563,-0.7543,-0.7545,-0.7543,-0.7556,-0.7524,-0.755,-0.7553,-0.7554,-0.7595,-0.76,-0.7605,0,0,0,0,0,-0.7672,-0.7686,-0.7673,-0.767,-0.7647,-0.764,-0.7637,-0.7612,-0.7597,-0.7602,-0.7585,-0.7564,-0.7556,-0.7545,-0.7543,-0.7556,-0.7549,-0.7552,-0.7554,-0.7592,-0.7599,-0.7605,0,0,0,0,0,0,-0.7715,-0.7682,-0.7667,-0.7673,-0.7659,-0.7632,-0.7639,-0.762,-0.7611,-0.7608,-0.7578,-0.7573,-0.758,-0.7568,-0.7557,-0.7572,-0.755,-0.7552,-0.758,-0.7586,-0.7591,-0.7594,-0.7523,0,0,0,0,0,-0.7725,-0.7722,-0.7693,-0.7701,-0.7695,-0.7668,-0.7664,-0.7646,-0.7632,-0.7626,-0.7609,-0.7596,-0.759,-0.7587,-0.7581,-0.7593,-0.7588,-0.7601,-0.7606,-0.7611,-0.7613,-0.7619,-0.7625,-0.7563,-0.7563,-0.7563,0,0,-0.7747,-0.7728,-0.7728,-0.771,-0.7697,-0.7695,-0.7664,-0.7662,-0.7661,-0.7626,-0.7627,-0.7614,-0.7598,-0.7606,-0.7608,-0.7596,-0.7629,-0.7614,-0.7617,-0.7617,-0.7622,-0.7628,-0.7633,-0.7565,-0.7565,-0.7564,0,0,-0.7784,-0.7769,-0.7775,-0.7763,-0.7744,-0.7726,-0.7728,-0.7703,-0.7693,-0.7694,-0.7668,-0.7666,-0.7657,-0.7647,-0.7641,-0.7675,-0.7656,-0.7674,-0.7701,-0.7708,-0.7713,-0.7717,-0.773,-0.7735,-0.7676,-0.7676,-0.7677,0,-0.7813,-0.7808,-0.778,-0.7781,-0.7774,-0.7742,-0.7748,-0.7738,-0.7718,-0.7715,-0.7701,-0.769,-0.7677,-0.7682,-0.7691,-0.7686,-0.7688,-0.7677,-0.7714,-0.7718,-0.7722,-0.7734,-0.7739,-0.7679,-0.7679,-0.7678,-0.7678,0,-0.7845,-0.7842,-0.7848,-0.783,-0.7824,-0.7827,-0.7801,-0.7799,-0.7782,-0.7766,-0.7768,-0.7751,-0.774,-0.774,-0.7724,-0.7744,-0.7737,-0.7719,-0.7696,-0.773,-0.7741,-0.7746,-0.7682,-0.7681,-0.7681,-0.768,0,0,-0.7908,-0.7875,-0.7878,-0.7869,-0.7846,-0.7844,-0.7846,-0.7835,-0.7834,-0.7822,-0.7824,-0.7818,-0.7801,-0.7794,-0.7776,-0.7782,-0.7812,-0.7764,-0.7763,-0.7774,-0.7833,-0.7847,-0.7853,-0.7799,-0.78,-0.78,-0.7835,0,-0.7942,-0.7943,-0.7919,-0.7927,-0.7924,-0.7894,-0.7896,-0.7883,-0.7869,-0.7865,-0.7849,-0.7845,-0.7824,-0.7819,-0.7824,-0.7807,-0.7823,-0.7804,-0.7801,-0.7801,-0.7806,-0.7858,-0.7872,-0.7906,-0.7839,-0.784,-0.784,0,-0.7981,-0.7971,-0.7979,-0.7956,-0.7954,-0.7956,-0.7945,-0.7942,-0.7927,-0.7916,-0.7908,-0.7888,-0.789,-0.7868,-0.787,-0.7858,-0.7855,-0.7847,-0.7848,-0.7847,-0.7823,-0.7859,-0.7916,-0.7921,-0.7846,-0.7846,-0.7846,0,-0.8028,-0.8016,-0.8019,-0.8012,-0.7986,-0.7989,-0.7978,-0.7962,-0.7957,-0.7948,-0.7945,-0.7936,-0.7931,-0.7926,-0.7904,-0.789,-0.791,-0.7886,-0.7901,-0.7902,-0.7907,-0.7907,-0.7965,-0.7905,-0.7905,-0.7905,-0.7905,0,-0.8068,-0.8074,-0.8039,-0.8041,-0.8048,-0.8021,-0.8028,-0.8014,-0.8001,-0.8,-0.7974,-0.7975,-0.7946,-0.7943,-0.7926,-0.7932,-0.793,-0.7922,-0.7917,-0.7924,-0.7925,-0.7922,-0.792,-0.7906,-0.7906,-0.7906,-0.7905,0,-0.8121,-0.8098,-0.8099,-0.8074,-0.8068,-0.8074,-0.8053,-0.8055,-0.8038,-0.8038,-0.8037,-0.8012,-0.8008,-0.7986,-0.7977,-0.7965,-0.7977,-0.7968,-0.7982,-0.7979,-0.7996,-0.7995,-0.8054,-0.8061,-0.7997,-0.7997,-0.7998,0,-0.8148,-0.8152,-0.8128,-0.8125,-0.8115,-0.8112,-0.8107,-0.8081,-0.8077,-0.8061,-0.8064,-0.8058,-0.8052,-0.8047,-0.8029,-0.8022,-0.8012,-0.8034,-0.8011,-0.8018,-0.8013,-0.8014,-0.8014,-0.8039,-0.8039,-0.804,-0.8041,0,-0.82,-0.8188,-0.8181,-0.8171,-0.8166,-0.8157,-0.8147,-0.8146,-0.8117,-0.8115,-0.811,-0.8105,-0.8096,-0.809,-0.808,-0.8071,-0.8051,-0.8048,-0.8051,-0.8058,-0.8067,-0.8063,-0.7995,-0.8047,-0.8046,-0.8045,-0.8045,-0.8045,-0.8241,-0.8243,-0.8226,-0.822,-0.8209,-0.82,-0.8201,-0.8184,-0.818,-0.8169,-0.8155,-0.8152,-0.8138,-0.8123,-0.8115,-0.8113,-0.8102,-0.8107,-0.8108,-0.811,-0.8113,-0.8067,-0.8111,-0.8111,-0.8111,-0.8111,-0.811,0,-0.8291,-0.8279,-0.8273,-0.8259,-0.8255,-0.8236,-0.8224,-0.8222,-0.822,-0.8208,-0.8202,-0.8197,-0.8192,-0.8173,-0.8166,-0.8169,-0.816,-0.8168,-0.8168,-0.8166,-0.8124,-0.8121,-0.8175,-0.8175,-0.8175,-0.8175,-0.8175,-0.8175,-0.8317,-0.832,-0.8307,-0.8305,-0.8292,-0.8289,-0.8284,-0.8276,-0.8266,-0.8262,-0.8257,-0.8244,-0.823,-0.8222,-0.8217,-0.8212,-0.8211,-0.8222,-0.8214,-0.8175,-0.8169,-0.8163,-0.8161,-0.8222,-0.8222,-0.8256,-0.8257,-0.8257]},{"header":{"parameterUnit":"m.s-1","parameterCategory":1,"la1":30.2991,"la2":30.254,"lo1":-89.0895,"lo2":-89.0444,"dy":0.0017,"dx":0.0017,"nx":28,"ny":28,"refTime":"2024-02-16T09:00:00:Z","depth":0,"parameterNumber":3,"parameterNumberName":"V-component_of_WINDS"},"data":[0,0,0,0,0,0,0,0,0,0,0,0,0,0,0,0,0,0,0,0,0,0,0,0,0,0,0,0,0,0,0,0,0,0,0,0,0,0,0,0,0,0,0,0,0,0,0,0,0,0,0,0,0,0,0,0,0,0,-0.153,-0.153,0,-0.1531,-0.1531,-0.1531,-0.153,-0.153,-0.153,-0.153,-0.1531,-0.1531,-0.1531,0,0,0,0,0,0,0,0,0,0,0,0,0,-0.1528,-0.1528,-0.153,-0.153,-0.153,-0.1531,-0.1531,-0.1531,-0.153,-0.153,-0.153,-0.153,-0.1531,-0.1531,-0.1531,0,0,0,0,0,0,0,0,0,0,0,0,0,-0.1529,-0.1528,-0.153,-0.153,-0.153,-0.1531,-0.1531,-0.1531,-0.153,-0.153,-0.153,-0.153,-0.1531,-0.1531,-0.1531,-0.1533,0,0,-0.1532,-0.1532,0,0,0,0,0,0,0,0,-0.1529,-0.1529,-0.153,-0.153,-0.153,-0.153,-0.153,-0.1531,-0.153,-0.153,-0.153,-0.153,-0.1531,-0.1531,-0.1531,-0.1533,-0.1533,-0.1532,-0.1532,-0.1532,-0.1532,0,0,0,0,0,0,0,-0.1529,-0.1529,-0.153,-0.153,-0.153,-0.153,-0.153,-0.1531,-0.1531,-0.153,-0.153,-0.153,-0.1531,-0.1531,-0.1531,-0.1533,-0.1532,-0.1532,-0.1532,-0.1532,-0.1535,-0.1535,0,0,0,0,0,0,-0.1528,-0.1529,-0.153,-0.153,-0.1529,-0.153,-0.153,-0.153,-0.1531,-0.1531,-0.153,-0.153,-0.1531,-0.1531,-0.1531,-0.1533,-0.1532,-0.1532,-0.1532,-0.1535,-0.1535,-0.1535,0,0,0,0,0,0,-0.1528,-0.1529,-0.153,-0.1529,-0.153,-0.153,-0.153,-0.153,-0.153,-0.1531,-0.1531,-0.153,-0.1531,-0.1531,-0.1532,-0.1533,-0.1532,-0.1532,-0.1535,-0.1535,-0.1535,-0.1536,0,0,0,0,0,0,-0.1528,-0.1529,-0.1529,-0.1529,-0.153,-0.1531,-0.153,-0.153,-0.153,-0.153,-0.1531,-0.1531,-0.1531,-0.1532,-0.1532,-0.1533,-0.1532,-0.1535,-0.1535,-0.1535,-0.1536,-0.1536,-0.1536,0,0,0,0,0,-0.1528,-0.1529,-0.1529,-0.1529,-0.153,-0.1531,-0.1531,-0.1531,-0.153,-0.1531,-0.1531,-0.1531,-0.1533,-0.1532,-0.1532,-0.1533,-0.1535,-0.1535,-0.1535,-0.1536,-0.1536,-0.1536,0,0,0,0,0,0,-0.1529,-0.1529,-0.1529,-0.153,-0.153,-0.1531,-0.1531,-0.1531,-0.1532,-0.1532,-0.1532,-0.1532,-0.1533,-0.1533,-0.1532,-0.1534,-0.1534,-0.1534,-0.1534,-0.1534,-0.1535,-0.1534,-0.1532,0,0,0,0,0,-0.1529,-0.153,-0.153,-0.1531,-0.1531,-0.1531,-0.1531,-0.1531,-0.1532,-0.1532,-0.1532,-0.1533,-0.1534,-0.1534,-0.1535,-0.1536,-0.1536,-0.1537,-0.1537,-0.1537,-0.1537,-0.1538,-0.1538,-0.1536,-0.1536,-0.1536,0,0,-0.153,-0.153,-0.153,-0.1531,-0.1531,-0.1532,-0.1531,-0.1532,-0.1532,-0.1532,-0.1533,-0.1533,-0.1534,-0.1535,-0.1536,-0.1535,-0.1538,-0.1537,-0.1537,-0.1537,-0.1538,-0.1538,-0.1538,-0.1536,-0.1536,-0.1536,0,0,-0.1531,-0.1531,-0.1532,-0.1532,-0.1533,-0.1533,-0.1533,-0.1533,-0.1533,-0.1534,-0.1534,-0.1535,-0.1536,-0.1537,-0.1537,-0.1538,-0.1538,-0.1539,-0.154,-0.154,-0.1541,-0.1541,-0.1541,-0.1542,-0.1539,-0.1539,-0.1539,0,-0.1531,-0.1532,-0.1532,-0.1533,-0.1533,-0.1533,-0.1534,-0.1534,-0.1535,-0.1535,-0.1535,-0.1536,-0.1537,-0.1538,-0.1539,-0.1539,-0.1539,-0.1539,-0.154,-0.1541,-0.1541,-0.1541,-0.1542,-0.1539,-0.1539,-0.1539,-0.1539,0,-0.1533,-0.1534,-0.1534,-0.1535,-0.1535,-0.1536,-0.1536,-0.1537,-0.1537,-0.1537,-0.1538,-0.1538,-0.1539,-0.1539,-0.1539,-0.1541,-0.1541,-0.154,-0.154,-0.1541,-0.1542,-0.1542,-0.1539,-0.1539,-0.1539,-0.1539,0,0,-0.1535,-0.1535,-0.1535,-0.1536,-0.1536,-0.1537,-0.1538,-0.1538,-0.1539,-0.1539,-0.154,-0.1541,-0.1541,-0.1541,-0.1541,-0.1542,-0.1543,-0.1542,-0.1542,-0.1542,-0.1545,-0.1545,-0.1546,-0.1543,-0.1543,-0.1543,-0.1545,0,-0.1536,-0.1537,-0.1537,-0.1538,-0.1539,-0.1539,-0.154,-0.154,-0.154,-0.1541,-0.1541,-0.1542,-0.1542,-0.1542,-0.1543,-0.1543,-0.1544,-0.1543,-0.1544,-0.1544,-0.1544,-0.1546,-0.1546,-0.1548,-0.1545,-0.1545,-0.1546,0,-0.1537,-0.1538,-0.1539,-0.154,-0.154,-0.1541,-0.1542,-0.1542,-0.1543,-0.1543,-0.1543,-0.1543,-0.1544,-0.1544,-0.1545,-0.1545,-0.1545,-0.1545,-0.1546,-0.1546,-0.1545,-0.1546,-0.1548,-0.1549,-0.1546,-0.1546,-0.1546,0,-0.1538,-0.154,-0.154,-0.1541,-0.1541,-0.1542,-0.1542,-0.1543,-0.1543,-0.1544,-0.1544,-0.1545,-0.1546,-0.1546,-0.1547,-0.1546,-0.1548,-0.1548,-0.1549,-0.1549,-0.1549,-0.1549,-0.1551,-0.1549,-0.1549,-0.1549,-0.1549,0,-0.154,-0.1541,-0.1541,-0.1542,-0.1543,-0.1543,-0.1544,-0.1544,-0.1545,-0.1545,-0.1545,-0.1546,-0.1546,-0.1547,-0.1547,-0.1549,-0.1549,-0.1549,-0.1549,-0.1549,-0.1549,-0.155,-0.155,-0.1549,-0.1549,-0.1549,-0.1549,0,-0.1541,-0.1541,-0.1542,-0.1543,-0.1543,-0.1544,-0.1544,-0.1545,-0.1545,-0.1546,-0.1547,-0.1547,-0.1548,-0.1548,-0.155,-0.155,-0.1551,-0.1551,-0.1551,-0.1551,-0.1552,-0.1552,-0.1555,-0.1555,-0.1553,-0.1553,-0.1553,0,-0.1542,-0.1543,-0.1543,-0.1544,-0.1544,-0.1545,-0.1545,-0.1546,-0.1546,-0.1547,-0.1548,-0.1549,-0.1549,-0.1551,-0.1552,-0.1553,-0.1553,-0.1554,-0.1553,-0.1553,-0.1553,-0.1553,-0.1553,-0.1554,-0.1554,-0.1554,-0.1554,0,-0.1544,-0.1544,-0.1544,-0.1545,-0.1546,-0.1546,-0.1547,-0.1547,-0.1548,-0.1548,-0.1549,-0.155,-0.1551,-0.1552,-0.1553,-0.1554,-0.1554,-0.1554,-0.1554,-0.1554,-0.1554,-0.1554,-0.1552,-0.1554,-0.1554,-0.1554,-0.1554,-0.1554,-0.1545,-0.1545,-0.1546,-0.1547,-0.1547,-0.1548,-0.1549,-0.1549,-0.155,-0.1551,-0.1551,-0.1552,-0.1553,-0.1554,-0.1555,-0.1556,-0.1556,-0.1556,-0.1556,-0.1556,-0.1556,-0.1554,-0.1556,-0.1556,-0.1556,-0.1556,-0.1556,0,-0.1546,-0.1547,-0.1548,-0.1548,-0.1549,-0.1549,-0.155,-0.155,-0.1551,-0.1552,-0.1553,-0.1554,-0.1555,-0.1556,-0.1557,-0.1558,-0.1558,-0.1558,-0.1558,-0.1558,-0.1556,-0.1556,-0.1558,-0.1558,-0.1558,-0.1558,-0.1558,-0.1558,-0.1547,-0.1548,-0.1549,-0.155,-0.155,-0.1551,-0.1552,-0.1553,-0.1553,-0.1554,-0.1555,-0.1556,-0.1557,-0.1558,-0.1559,-0.1559,-0.156,-0.156,-0.156,-0.1558,-0.1558,-0.1558,-0.1558,-0.156,-0.156,-0.1562,-0.1562,-0.1562]}]]